Regional Weather Roundup
Issued by NWS

Home | Current Version | Previous Version | Text Only | Print | Product List | Glossary Off
Versions: 1 2 3 4 5 6 7 8 9 10 11 12 13 14 15 16 17 18 19 20 21 22 23 24 25 26 27 28 29 30 31 32 33 34 35 36 37 38 39 40 41 42 43 44 45 46 47 48 49 50

000
ASUS43 KDMX 160606
RWRIA

WEATHER ROUNDUP FOR IOWA
NATIONAL WEATHER SERVICE DES MOINES IA
1200 AM CST SAT DEC 16 2017

NOTE: "FAIR" INDICATES FEW OR NO CLOUDS BELOW 12,000 FEET WITH NO
SIGNIFICANT WEATHER AND/OR OBSTRUCTIONS TO VISIBILITY.

* - THESE STATIONS ARE NOT NWS STATIONS...THUS NOT UNDER NWS
QUALITY CONTROL.  THEY ALSO DO NOT REPORT WEATHER SUCH
AS PRECIPITATION OR FOG.

IAZ001>003-012>014-020>022-031>034-043>046-160700-
   NORTHWEST IOWA

CITY           SKY/WX    TMP DP  RH WIND       PRES   REMARKS
CARROLL *      CLOUDY    37  25  60 SW17G24   29.68F WCI  28
CHEROKEE *     CLOUDY    31  26  81 S3        29.66F
DENISON *      CLOUDY    37  25  60 SW10      29.71S WCI  30
LE MARS *      PTCLDY    32  25  74 S5        29.65F WCI  27
ORANGE CITY *  PTCLDY    34  28  80 S3        29.64F
SHELDON *      CLOUDY    36  28  75 SW8       29.63S WCI  29
SIOUX CITY     CLOUDY    28  23  81 SE5       29.67S WCI  23
6HR MIN TEMP:  28; 6HR MAX TEMP:  41;

SPENCER        PTCLDY    35  26  69 SW12      29.64F WCI  27
6HR MIN TEMP:  35; 6HR MAX TEMP:  39;

STORM LAKE *   CLOUDY    34  25  69 SW9       29.66F WCI  26
$$

IAZ055>058-069>071-079>083-090>094-160700-
   SOUTHWEST IOWA

CITY           SKY/WX    TMP DP  RH WIND       PRES   REMARKS
ATLANTIC *     CLOUDY    34  25  69 S7        29.74F WCI  28
AUDUBON *      CLOUDY    37  25  60 SW9       29.71F WCI  31
CLARINDA *       N/A     36  25  64 S7        29.81  WCI  30
COUNCIL BLFS * CLEAR     41  23  48 SW16      29.72F
CRESTON *      CLOUDY    39  25  56 SW16      29.78F WCI  30
HARLAN  *      CLOUDY    32  25  74 S7        29.75F WCI  26
LAMONI         CLOUDY    35  24  64 SW14      29.81S WCI  26
6HR MIN TEMP:  34; 6HR MAX TEMP:  38;

RED OAK *      CLOUDY    36  23  60 S9        29.76F WCI  29
SHENANDOAH *   CLEAR     39  25  56 SW14      29.78F WCI  31
$$

IAZ047>049-059>061-072>074-084-160700-
   CENTRAL IOWA

CITY           SKY/WX    TMP DP  RH WIND       PRES   REMARKS
AMES           PTCLDY    35  25  66 SW9       29.73F WCI  28
6HR MIN TEMP:  35; 6HR MAX TEMP:  40;

ANKENY *       CLOUDY    37  23  56 SW10      29.76F WCI  30
BOONE *        PTCLDY    36  23  60 SW12G18   29.70F WCI  27
CHARITON *     CLOUDY    36  23  60 SW14      29.79F WCI  27
DES MOINES     CLOUDY    37  23  56 SW13      29.75F WCI  29
6HR MIN TEMP:  36; 6HR MAX TEMP:  41;

GRINNELL*      CLOUDY    33  23  67 S10       29.77F WCI  25
KNOXVILLE *    CLOUDY    39  23  52 SW16      29.76F WCI  30
MARSHALLTOWN   CLOUDY    35  23  61 SW12      29.73F WCI  27
6HR MIN TEMP:  35; 6HR MAX TEMP:  40;

NEWTON *       CLOUDY    36  23  60 SW12      29.76F WCI  27
PELLA *        CLOUDY    35  23  62 S3        29.79F
PERRY *          N/A     32  22  66 S13       29.72S WCI  22
$$

IAZ004>006-015-016-023>025-035-036-160700-
   NORTH CENTRAL IOWA

CITY           SKY/WX    TMP DP  RH WIND       PRES   REMARKS
ALGONA *       MOCLDY    34  27  75 SW10      29.66S WCI  26
CLARION *      MOCLDY    34  25  69 S10       29.68F WCI  26
ESTHERVILLE    CLOUDY    36  28  73 SW13      29.63F WCI  27
6HR MIN TEMP:  34; 6HR MAX TEMP:  37;

FORT DODGE *   PTCLDY    33  23  66 S9        29.68F WCI  25
MASON CITY     CLOUDY    33  24  69 S7        29.68F WCI  27
6HR MIN TEMP:  33; 6HR MAX TEMP:  38;

FOREST CITY *    N/A     34  27  75 S5        29.66F WCI  30
WEBSTER CITY * PTCLDY    32  23  69 S12       29.67F WCI  23
IOWA FALLS *     N/A     34  25  69 S10       29.72S WCI  26
$$

IAZ007>011-017>019-026>030-037>042-050>054-066-160700-
   NORTHEAST IOWA

CITY           SKY/WX    TMP DP  RH WIND       PRES   REMARKS
CEDAR RAPIDS   CLOUDY    34  22  61 S15       29.77F WCI  24
6HR MIN TEMP:  32; 6HR MAX TEMP:  38;

CHARLES CITY * CLOUDY    32  25  74 S8        29.71F WCI  25
CLINTON *      MOCLDY    36  22  56 SW16      29.83F WCI  26
DECORAH *      CLOUDY    34  25  69 SW6G13    29.70F WCI  29
DUBUQUE        CLOUDY    34  23  64 S14       29.78F WCI  25
6HR MIN TEMP:  29; 6HR MAX TEMP:  36;

MONTICELLO *   CLOUDY    32  23  69 S8        29.78F WCI  25
OELWEIN *      CLOUDY    32  23  69 S10       29.74F WCI  24
WATERLOO       CLOUDY    34  22  61 S8        29.73F WCI  27
6HR MIN TEMP:  33; 6HR MAX TEMP:  38;

$$

IAZ064-065-067-068-078-160700-
   EAST CENTRAL IOWA

CITY           SKY/WX    TMP DP  RH WIND       PRES   REMARKS
DAVENPORT      PTCLDY    34  21  59 S13       29.85F WCI  25
6HR MIN TEMP:  34; 6HR MAX TEMP:  37;

IOWA CITY      CLOUDY    35  22  58 S9        29.83F WCI  28
6HR MIN TEMP:  35; 6HR MAX TEMP:  39;

MT. PLEASANT * CLOUDY    35  22  59 S14G22    29.85F WCI  26
MUSCATINE *    CLOUDY    37  21  52 S14       29.84F WCI  29
QUAD CITIES    CLOUDY    37  22  54 SW9       29.85F WCI  30
6HR MIN TEMP:  34; 6HR MAX TEMP:  38;

$$

IAZ062-063-075>077-085>089-095>099-160700-
   SOUTHEAST IOWA

CITY           SKY/WX    TMP DP  RH WIND       PRES   REMARKS
BURLINGTON     CLOUDY    33  24  69 S12       29.87F WCI  24
6HR MIN TEMP:  33; 6HR MAX TEMP:  36;

FAIRFIELD *    CLOUDY    34  21  60 S10       29.82F WCI  26
FORT MADISON * CLOUDY    36  25  64 S13       29.88F WCI  27
KEOKUK *       CLOUDY    34  23  64 SW14      29.89F WCI  24
OSKALOOSA *      N/A     36  24  61 SW16      29.80F WCI  26
OTTUMWA        CLOUDY    37  22  54 SW13      29.81F WCI  29
6HR MIN TEMP:  34; 6HR MAX TEMP:  38;

WASHINGTON *   CLOUDY    36  23  60 SW14      29.83F WCI  27
$$

ABBREVIATIONS USED IN REMARKS
   TC - TEMPERATURES IN CELSIUS
  WCI - WIND CHILL INDEX
   HX - HEAT INDEX
  VSB - VISIBILITY
$$





USA.gov is the U.S. government's official web portal to all federal, state and local government web resources and services.